KB6LA Weather Reports


Display with metric or nautical units.
time (UTC)temp
F
wind
direction
speed
MPH
gust
MPH
rain 1hr
in
rain 24hr
in
rain mn
in
humidity
%
barometer
mb
20260831200634 76 242 6.0 14.0 0.00 0.00 0.00 71 1012.4
20260831195114 76 261 7.0 13.0 0.00 0.00 0.00 71 1012.8
20260831194608 76 248 5.0 13.0 0.00 0.00 0.00 71 1012.8
20260831194102 76 322 6.0 13.0 0.00 0.00 0.00 72 1012.8
20260831193554 77 250 3.0 10.0 0.00 0.00 0.00 70 1012.8
20260831192542 76 249 9.0 11.0 0.00 0.00 0.00 71 1012.8
20260831192035 76 292 7.0 11.0 0.00 0.00 0.00 72 1012.8
20260831191529 76 234 8.0 10.0 0.00 0.00 0.00 73 1013.1
20260831190516 76 246 7.0 11.0 0.00 0.00 0.00 73 1013.1
20260831190009 76 233 7.0 13.0 0.00 0.00 0.00 72 1013.1
20260831185502 75 229 5.0 14.0 0.00 0.00 0.00 74 1012.8
20260831184956 75 222 7.0 14.0 0.00 0.00 0.00 75 1013.1
20260831184450 75 244 5.0 9.0 0.00 0.00 0.00 74 1012.8
20260831183943 75 215 5.0 13.0 0.00 0.00 0.00 75 1012.8
20260831183437 75 191 7.0 13.0 0.00 0.00 0.00 73 1013.1
20260831182930 75 228 8.0 9.0 0.00 0.00 0.00 74 1013.1
20260831181917 75 191 8.0 11.0 0.00 0.00 0.00 74 1013.1
20260831181410 75 252 9.0 11.0 0.00 0.00 0.00 73 1012.8
20260831180904 75 227 6.0 13.0 0.00 0.00 0.00 74 1013.1
20260831180357 75 207 4.0 13.0 0.00 0.00 0.00 73 1013.1
20260831175851 75 265 3.0 8.0 0.00 0.00 0.00 74 1013.1
20260831175345 75 281 7.0 8.0 0.00 0.00 0.00 74 1013.1
20260831174837 75 244 3.0 8.0 0.00 0.00 0.00 74 1013.1
20260831174331 75 223 2.0 9.0 0.00 0.00 0.00 74 1013.1
20260831173825 76 255 7.0 9.0 0.00 0.00 0.00 73 1013.1
20260831173319 75 310 2.0 9.0 0.00 0.00 0.00 73 1013.1
20260831172811 75 255 3.0 9.0 0.00 0.00 0.00 75 1013.1
20260831172306 74 236 3.0 13.0 0.00 0.00 0.00 75 1013.1
20260831171759 74 264 2.0 13.0 0.00 0.00 0.00 76 1013.1
20260831171252 74 222 6.0 10.0 0.00 0.00 0.00 75 1012.8
20260831170745 74 257 7.0 10.0 0.00 0.00 0.00 76 1013.1
20260831165733 74 201 6.0 9.0 0.00 0.00 0.00 76 1012.8
20260831165226 74 240 5.0 10.0 0.00 0.00 0.00 75 1012.8
20260831164719 76 234 9.0 10.0 0.00 0.00 0.00 71 1012.8
20260831164214 75 316 1.0 4.0 0.00 0.00 0.00 72 1012.8
20260831163707 75 245 1.0 9.0 0.00 0.00 0.00 72 1012.4
20260831163159 75 185 3.0 9.0 0.00 0.00 0.00 72 1012.8
20260831162653 75 207 3.0 6.0 0.00 0.00 0.00 72 1012.4
20260831162147 74 187 4.0 8.0 0.00 0.00 0.00 72 1012.4
20260831161640 74 182 5.0 8.0 0.00 0.00 0.00 72 1012.4
20260831161134 74 169 4.0 7.0 0.00 0.00 0.00 71 1012.4
20260831160627 75 173 4.0 7.0 0.00 0.00 0.00 70 1012.4
20260831160121 75 219 2.0 3.0 0.00 0.00 0.00 70 1012.4
20260831155615 74 53 2.0 6.0 0.00 0.00 0.00 72 1012.4
20260831155108 75 148 4.0 6.0 0.00 0.00 0.00 71 1012.4
20260831154055 75 111 2.0 4.0 0.00 0.00 0.00 71 1012.4
20260831153548 74 64 2.0 4.0 0.00 0.00 0.00 71 1012.4
20260831152536 74 123 2.0 4.0 0.00 0.00 0.00 73 1012.4
20260831152029 73 220 1.0 2.0 0.00 0.00 0.00 74 1012.4
20260831151523 73 192 2.0 2.0 0.00 0.00 0.00 75 1012.4
20260831150509 71 327 0.0 2.0 0.00 0.00 0.00 77 1012.4
20260831150003 71 327 1.0 1.0 0.00 0.00 0.00 78 1012.1
20260831145456 70 327 0.0 1.0 0.00 0.00 0.00 79 1012.4
20260831144950 69 327 1.0 2.0 0.00 0.00 0.00 80 1012.1
20260831143937 68 327 1.0 1.0 0.00 0.00 0.00 82 1012.1
20260831143430 68 327 1.0 2.0 0.00 0.00 0.00 83 1012.1
20260831142923 67 327 1.0 2.0 0.00 0.00 0.00 83 1012.1
20260831141911 66 327 1.0 2.0 0.00 0.00 0.00 84 1011.8
20260831141404 66 327 0.0 1.0 0.00 0.00 0.00 85 1011.8
20260831140858 66 327 0.0 1.0 0.00 0.00 0.00 85 1011.8
20260831135844 65 327 0.0 1.0 0.00 0.00 0.00 85 1011.4
20260831135338 65 327 0.0 1.0 0.00 0.00 0.00 85 1011.8
20260831134832 65 326 0.0 1.0 0.00 0.00 0.00 85 1011.4
20260831134326 65 326 1.0 1.0 0.00 0.00 0.00 85 1011.4
20260831133819 65 321 0.0 1.0 0.00 0.00 0.00 85 1011.4
20260831132806 65 321 0.0 1.0 0.00 0.00 0.00 85 1011.1
20260831132259 65 321 1.0 2.0 0.00 0.00 0.00 85 1011.1
20260831131753 65 322 1.0 3.0 0.00 0.00 0.00 85 1011.4
20260831131247 65 329 1.0 3.0 0.00 0.00 0.00 85 1011.4
20260831130740 65 316 1.0 3.0 0.00 0.00 0.00 85 1011.1
20260831130233 65 325 1.0 3.0 0.00 0.00 0.00 85 1011.1
20260831125727 65 325 1.0 2.0 0.00 0.00 0.00 85 1011.1
20260831125220 65 319 1.0 3.0 0.00 0.00 0.00 85 1011.1
20260831124714 65 337 2.0 3.0 0.00 0.00 0.00 85 1011.1
20260831124207 65 333 1.0 3.0 0.00 0.00 0.00 85 1011.1
20260831123701 65 325 1.0 3.0 0.00 0.00 0.00 85 1011.1
20260831123154 65 313 2.0 3.0 0.00 0.00 0.00 85 1011.1
20260831122648 66 327 1.0 2.0 0.00 0.00 0.00 85 1011.1
20260831122142 66 317 1.0 2.0 0.00 0.00 0.00 85 1011.1
20260831121128 66 334 2.0 2.0 0.00 0.00 0.00 85 1011.1
20260831120622 66 314 0.0 2.0 0.00 0.00 0.00 85 1011.1
20260831120116 66 320 1.0 2.0 0.00 0.00 0.00 85 1011.1
20260831115104 66 331 2.0 3.0 0.00 0.00 0.00 85 1011.1
20260831113543 67 310 0.0 2.0 0.00 0.00 0.00 84 1011.1
20260831113036 67 318 1.0 2.0 0.00 0.00 0.00 85 1011.1
20260831112530 67 324 1.0 1.0 0.00 0.00 0.00 85 1011.1
20260831112024 67 330 1.0 1.0 0.00 0.00 0.00 85 1011.1
20260831111516 67 319 0.0 3.0 0.00 0.00 0.00 85 1011.1
20260831111010 67 308 0.0 3.0 0.00 0.00 0.00 84 1011.1
20260831110504 67 318 2.0 3.0 0.00 0.00 0.00 84 1011.1
20260831105957 67 324 2.0 2.0 0.00 0.00 0.00 84 1011.4
20260831105451 67 337 1.0 2.0 0.00 0.00 0.00 84 1011.1
20260831104945 67 336 0.0 2.0 0.00 0.00 0.00 84 1011.1
20260831103932 68 336 0.0 1.0 0.00 0.00 0.00 84 1011.1
20260831103424 68 336 0.0 1.0 0.00 0.00 0.00 83 1011.1
20260831102918 68 336 0.0 1.0 0.00 0.00 0.00 84 1011.1
20260831102412 68 336 1.0 2.0 0.00 0.00 0.00 84 1011.1
20260831101905 68 336 0.0 2.0 0.00 0.00 0.00 83 1011.1
20260831101359 68 322 1.0 2.0 0.00 0.00 0.00 83 1011.1
20260831100853 68 320 1.0 2.0 0.00 0.00 0.00 83 1011.1
20260831100346 68 316 0.0 2.0 0.00 0.00 0.00 83 1011.1
20260831095840 68 322 2.0 2.0 0.00 0.00 0.00 83 1011.4
20260831095333 69 319 0.0 2.0 0.00 0.00 0.00 83 1011.4
20260831094826 69 316 1.0 2.0 0.00 0.00 0.00 83 1011.1
20260831094320 69 257 0.0 2.0 0.00 0.00 0.00 83 1011.1
20260831093814 69 247 0.0 1.0 0.00 0.00 0.00 83 1011.1
20260831093307 69 231 0.0 3.0 0.00 0.00 0.00 83 1011.1
20260831092800 69 253 0.0 4.0 0.00 0.00 0.00 82 1011.1
20260831092254 69 170 2.0 4.0 0.00 0.00 0.00 82 1011.1
20260831091240 70 359 0.0 3.0 0.00 0.00 0.00 81 1011.1
20260831090734 70 355 1.0 3.0 0.00 0.00 0.00 81 1011.1
20260831090228 70 67 2.0 4.0 0.00 0.00 0.00 80 1011.1
20260831085722 70 89 3.0 6.0 0.00 0.00 0.00 79 1011.1
20260831085215 70 158 3.0 6.0 0.00 0.00 0.00 77 1011.1
20260831084708 70 214 1.0 4.0 0.00 0.00 0.00 76 1011.1
20260831083655 70 350 0.0 6.0 0.00 0.00 0.00 75 1011.1
20260831083149 70 70 3.0 6.0 0.00 0.00 0.00 75 1011.1
20260831082642 70 72 2.0 6.0 0.00 0.00 0.00 75 1011.1
20260831081629 71 90 2.0 4.0 0.00 0.00 0.00 75 1011.1
20260831081123 71 74 2.0 4.0 0.00 0.00 0.00 75 1011.1
20260831080616 71 57 3.0 4.0 0.00 0.00 0.00 74 1011.1
20260831075604 71 34 2.0 4.0 0.00 0.00 0.00 74 1011.1
20260831075056 70 108 2.0 4.0 0.00 0.00 0.00 75 1011.1
20260831074044 70 40 3.0 3.0 0.00 0.00 0.00 75 1011.1
20260831073538 70 109 2.0 2.0 0.00 0.00 0.00 75 1011.1
20260831073031 71 141 1.0 3.0 0.00 0.00 0.00 75 1010.7
20260831072524 71 17 2.0 3.0 0.00 0.00 0.00 75 1010.7
20260831071511 70 80 1.0 3.0 0.00 0.00 0.00 76 1010.7
20260831071005 70 17 1.0 3.0 0.00 0.00 0.00 76 1010.7
20260831070459 70 11 1.0 4.0 0.00 0.00 0.00 76 1010.7
20260831065952 70 0 1.0 4.0 0.00 0.00 0.00 76 1010.7
20260831065446 70 342 0.0 3.0 0.00 0.00 0.00 77 1010.7
20260831064938 70 121 2.0 3.0 0.00 0.00 0.00 77 1010.7
20260831064432 70 147 2.0 3.0 0.00 0.00 0.00 77 1010.7
20260831063926 70 54 1.0 4.0 0.00 0.00 0.00 78 1010.7
20260831063420 70 58 3.0 4.0 0.00 0.00 0.00 79 1010.7
20260831062406 70 104 1.0 3.0 0.00 0.00 0.00 79 1010.7
20260831061900 70 116 2.0 3.0 0.00 0.00 0.00 79 1010.7
20260831061354 70 238 1.0 4.0 0.00 0.00 0.00 79 1010.7
20260831060847 70 245 0.0 4.0 0.00 0.00 0.00 80 1010.7
20260831060340 70 171 2.0 4.0 0.00 0.00 0.00 80 1010.7
20260831055834 70 224 1.0 4.0 0.00 0.00 0.00 81 1010.7
20260831055327 70 188 2.0 4.0 0.00 0.00 0.00 81 1010.7
20260831054315 70 193 2.0 3.0 0.00 0.00 0.00 82 1010.7
20260831053808 70 184 3.0 4.0 0.00 0.00 0.00 82 1010.7
20260831053302 70 192 3.0 4.0 0.00 0.00 0.00 82 1010.7
20260831052248 70 261 0.0 4.0 0.00 0.00 0.00 82 1010.7
20260831051742 70 256 0.0 4.0 0.00 0.00 0.00 82 1010.7
20260831051236 70 188 3.0 4.0 0.00 0.00 0.00 82 1010.7
20260831050729 70 156 2.0 4.0 0.00 0.00 0.00 82 1010.7
20260831050223 70 230 2.0 6.0 0.00 0.00 0.00 81 1010.7
20260831044704 71 201 2.0 4.0 0.00 0.00 0.00 80 1010.7
20260831043650 71 231 1.0 2.0 0.00 0.00 0.00 79 1010.7
20260831042131 71 231 1.0 2.0 0.00 0.00 0.00 79 1010.4
20260831041624 71 218 2.0 3.0 0.00 0.00 0.00 79 1010.7
20260831041118 71 241 1.0 3.0 0.00 0.00 0.00 79 1010.4
20260831040105 71 267 1.0 3.0 0.00 0.00 0.00 78 1010.4
20260831035559 71 215 2.0 4.0 0.00 0.00 0.00 78 1010.4
20260831035051 71 209 2.0 4.0 0.00 0.00 0.00 78 1010.4
20260831034545 71 254 1.0 3.0 0.00 0.00 0.00 78 1010.1
20260831034039 71 212 2.0 3.0 0.00 0.00 0.00 79 1010.1
20260831033532 71 197 3.0 3.0 0.00 0.00 0.00 79 1010.1
20260831033025 71 233 2.0 3.0 0.00 0.00 0.00 79 1009.7
20260831032519 71 241 2.0 4.0 0.00 0.00 0.00 79 1009.7
20260831032012 71 208 2.0 4.0 0.00 0.00 0.00 79 1010.1
20260831031506 71 210 2.0 4.0 0.00 0.00 0.00 79 1009.7
20260831031000 71 238 2.0 4.0 0.00 0.00 0.00 79 1009.7
20260831030454 71 230 1.0 4.0 0.00 0.00 0.00 79 1009.7
20260831025946 71 250 2.0 4.0 0.00 0.00 0.00 79 1009.4
20260831025440 72 220 4.0 4.0 0.00 0.00 0.00 78 1009.7
20260831023922 72 222 2.0 4.0 0.00 0.00 0.00 79 1009.4
20260831023414 72 197 3.0 4.0 0.00 0.00 0.00 79 1009.4
20260831022907 72 208 3.0 4.0 0.00 0.00 0.00 79 1009.4
20260831022400 73 235 2.0 4.0 0.00 0.00 0.00 78 1009.4
20260831021854 73 211 4.0 4.0 0.00 0.00 0.00 77 1009.4
20260831021348 73 217 3.0 7.0 0.00 0.00 0.00 76 1009.4
20260831020841 74 227 2.0 7.0 0.00 0.00 0.00 76 1009.4
20260831020334 74 253 2.0 6.0 0.00 0.00 0.00 75 1009.4
20260831015828 74 201 4.0 4.0 0.00 0.00 0.00 74 1009.4
20260831015322 74 214 2.0 6.0 0.00 0.00 0.00 74 1009.0
20260831014815 74 228 3.0 6.0 0.00 0.00 0.00 74 1009.4
20260831014308 75 194 3.0 7.0 0.00 0.00 0.00 74 1009.4
20260831013802 75 224 2.0 8.0 0.00 0.00 0.00 73 1009.4
20260831013256 75 350 3.0 9.0 0.00 0.00 0.00 73 1009.4
20260831012750 75 217 5.0 9.0 0.00 0.00 0.00 71 1009.4
20260831011736 76 253 5.0 8.0 0.00 0.00 0.00 70 1009.4
20260831011229 76 200 3.0 8.0 0.00 0.00 0.00 69 1009.4
20260831010723 76 233 8.0 8.0 0.00 0.00 0.00 69 1009.4
20260831010217 76 225 5.0 8.0 0.00 0.00 0.00 69 1009.4
20260831005709 76 262 3.0 10.0 0.00 0.00 0.00 71 1009.4
20260831004150 76 245 5.0 10.0 0.00 0.00 0.00 72 1009.4
20260831003644 76 262 4.0 10.0 0.00 0.00 0.00 73 1009.4
20260831002631 75 258 7.0 13.0 0.00 0.00 0.00 74 1009.4
20260831002124 75 231 7.0 13.0 0.00 0.00 0.00 73 1009.4
20260831001618 76 228 6.0 14.0 0.00 0.00 0.00 72 1009.4
20260831001112 76 220 10.0 14.0 0.00 0.00 0.00 71 1009.4
20260831000604 76 269 5.0 13.0 0.00 0.00 0.00 72 1009.4
20260831000058 76 247 5.0 13.0 0.00 0.00 0.00 72 1009.4
20260830235552 77 257 7.0 13.0 0.00 0.00 0.00 71 1009.4
20260830235046 77 218 10.0 13.0 0.00 0.00 0.00 70 1009.4
20260830234538 77 216 6.0 14.0 0.00 0.00 0.00 69 1009.4
20260830233526 77 222 5.0 11.0 0.00 0.00 0.00 69 1009.7
20260830233020 78 243 10.0 11.0 0.00 0.00 0.00 69 1009.4
20260830232512 78 235 6.0 13.0 0.00 0.00 0.00 67 1009.4
20260830231500 79 252 8.0 14.0 0.00 0.00 0.00 68 1009.4
20260830230953 79 211 9.0 11.0 0.00 0.00 0.00 68 1009.7
20260830230447 79 197 8.0 13.0 0.00 0.00 0.00 67 1009.7
20260830225940 80 232 10.0 13.0 0.00 0.00 0.00 66 1009.7
20260830225434 80 232 7.0 11.0 0.00 0.00 0.00 64 1009.7
20260830224927 80 238 10.0 11.0 0.00 0.00 0.00 63 1009.7
20260830224421 80 241 6.0 11.0 0.00 0.00 0.00 64 1009.7
20260830223913 80 281 6.0 11.0 0.00 0.00 0.00 64 1009.7
20260830223407 80 224 8.0 11.0 0.00 0.00 0.00 64 1010.1
20260830222901 80 238 6.0 13.0 0.00 0.00 0.00 62 1010.1
20260830222354 80 219 11.0 14.0 0.00 0.00 0.00 61 1010.1
20260830221848 80 203 8.0 11.0 0.00 0.00 0.00 63 1010.1
20260830221342 79 202 6.0 13.0 0.00 0.00 0.00 65 1010.1
20260830220834 79 223 7.0 13.0 0.00 0.00 0.00 64 1010.1
20260830220328 79 224 7.0 13.0 0.00 0.00 0.00 65 1010.4
20260830215315 80 223 7.0 13.0 0.00 0.00 0.00 66 1010.4
20260830214808 81 251 7.0 13.0 0.00 0.00 0.00 65 1010.4
20260830214302 81 278 6.0 11.0 0.00 0.00 0.00 62 1010.7
20260830213248 80 252 8.0 13.0 0.00 0.00 0.00 65 1010.7
20260830212742 80 251 5.0 13.0 0.00 0.00 0.00 66 1010.7
20260830212236 80 193 7.0 13.0 0.00 0.00 0.00 64 1010.7
20260830211729 81 217 5.0 13.0 0.00 0.00 0.00 61 1010.7
20260830210716 81 229 9.0 13.0 0.00 0.00 0.00 61 1010.7
20260830210210 80 214 7.0 11.0 0.00 0.00 0.00 63 1011.1
20260830205157 80 202 7.0 14.0 0.00 0.00 0.00 63 1011.1
20260830204650 80 240 9.0 14.0 0.00 0.00 0.00 62 1010.7
20260830204144 80 233 9.0 15.0 0.00 0.00 0.00 61 1011.1
20260830203637 81 235 12.0 15.0 0.00 0.00 0.00 63 1011.1
20260830203130 80 257 7.0 14.0 0.00 0.00 0.00 63 1011.1
20260830202624 80 279 7.0 14.0 0.00 0.00 0.00 63 1011.1
20260830202117 81 213 7.0 13.0 0.00 0.00 0.00 61 1011.1
20260830201610 82 252 6.0 13.0 0.00 0.00 0.00 61 1011.1
20260830201104 81 264 8.0 13.0 0.00 0.00 0.00 62 1011.1